N1YZ Weather Reports


Display with metric or nautical units.
time (UTC)temp
F
wind
direction
speed
MPH
gust
MPH
rain 1hr
in
rain 24hr
in
rain mn
in
humidity
%
barometer
mb
20260904234554 91 353 0.0 0.0 0.00 0.00 0.00 59 1033.3
20260904234050 91 38 0.0 0.0 0.00 0.00 0.00 59 1033.4
20260904233545 91 6 0.0 0.0 0.00 0.00 0.00 59 1033.4
20260904233041 91 1 0.0 0.0 0.00 0.00 0.00 59 1033.5
20260904232538 91 11 0.0 0.0 0.00 0.00 0.00 59 1033.3
20260904232034 91 5 0.0 0.0 0.00 0.00 0.00 59 1033.2
20260904231529 92 23 0.0 0.0 0.00 0.00 0.00 59 1033.0
20260904231024 92 0 0.0 0.0 0.00 0.00 0.00 58 1032.9
20260904230523 92 8 0.0 0.0 0.00 0.00 0.00 58 1032.8
20260904230019 92 11 0.0 0.0 0.00 0.00 0.00 59 1033.0
20260904225517 92 31 0.0 0.0 0.00 0.00 0.00 58 1032.8
20260904225016 92 13 0.0 0.0 0.00 0.00 0.00 58 1032.7
20260904224511 93 23 0.0 0.0 0.00 0.00 0.00 57 1032.8
20260904224011 93 22 0.0 0.0 0.00 0.00 0.00 56 1032.9
20260904223510 93 21 0.0 0.0 0.00 0.00 0.00 56 1032.8
20260904223007 93 16 0.0 0.0 0.00 0.00 0.00 56 1032.9
20260904222502 93 4 0.0 0.0 0.00 0.00 0.00 58 1032.8
20260904221956 93 19 0.0 0.0 0.00 0.00 0.00 57 1032.7
20260904221451 93 172 0.0 0.0 0.00 0.00 0.00 58 1032.6
20260904220946 94 24 0.0 0.0 0.00 0.00 0.00 57 1032.7
20260904220446 94 20 0.0 0.0 0.00 0.00 0.00 55 1032.6
20260904215941 93 28 0.0 0.0 0.00 0.00 0.00 55 1032.4
20260904215436 93 358 0.0 0.0 0.00 0.00 0.00 58 1032.5
20260904214931 93 14 0.0 0.0 0.00 0.00 0.00 58 1032.5
20260904214427 94 49 0.0 0.0 0.00 0.00 0.00 55 1032.4
20260904213926 94 354 0.0 0.0 0.00 0.00 0.00 56 1032.7
20260904213415 94 19 0.0 0.0 0.00 0.00 0.00 56 1032.9
20260904212912 94 14 0.0 0.0 0.00 0.00 0.00 57 1032.6
20260904212410 94 143 0.0 1.0 0.00 0.00 0.00 55 1032.9
20260904211906 93 139 2.0 2.0 0.00 0.00 0.00 53 1032.8
20260904211401 94 29 0.0 0.0 0.00 0.00 0.00 56 1032.5
20260904210856 94 73 2.0 2.0 0.00 0.00 0.00 55 1032.7
20260904210356 94 6 1.0 2.0 0.00 0.00 0.00 59 1032.8
20260904205852 94 24 0.0 0.0 0.00 0.00 0.00 57 1032.5
20260904205347 94 349 1.0 1.0 0.00 0.00 0.00 57 1032.8
20260904204844 94 23 0.0 1.0 0.00 0.00 0.00 57 1032.9
20260904204340 94 27 0.0 0.0 0.00 0.00 0.00 54 1032.9
20260904203836 93 41 1.0 2.0 0.00 0.00 0.00 55 1032.9
20260904203332 93 23 0.0 0.0 0.00 0.00 0.00 57 1032.8
20260904202827 94 25 0.0 0.0 0.00 0.00 0.00 59 1033.0
20260904202323 94 329 2.0 3.0 0.00 0.00 0.00 58 1033.1
20260904201819 93 19 1.0 1.0 0.00 0.00 0.00 58 1033.1
20260904201319 95 28 0.0 0.0 0.00 0.00 0.00 59 1033.1
20260904200814 94 163 0.0 1.0 0.00 0.00 0.00 54 1033.5
20260904200308 94 34 0.0 1.0 0.00 0.00 0.00 55 1033.5
20260904195808 95 17 0.0 0.0 0.00 0.00 0.00 56 1033.6
20260904195306 94 19 1.0 1.0 0.00 0.00 0.00 55 1033.7
20260904194801 94 25 2.0 2.0 0.00 0.00 0.00 56 1033.6
20260904194300 94 100 1.0 1.0 0.00 0.00 0.00 54 1033.7
20260904193756 94 340 2.0 2.0 0.00 0.00 0.00 58 1033.9
20260904193251 94 38 0.0 1.0 0.00 0.00 0.00 59 1033.9
20260904192746 94 4 1.0 1.0 0.00 0.00 0.00 59 1034.0
20260904192242 94 17 0.0 1.0 0.00 0.00 0.00 59 1034.5
20260904191738 93 25 0.0 0.0 0.00 0.00 0.00 58 1034.3
20260904191235 95 40 0.0 0.0 0.00 0.00 0.00 59 1034.4
20260904190731 95 358 1.0 1.0 0.00 0.00 0.00 56 1034.4
20260904190226 95 186 3.0 3.0 0.00 0.00 0.00 56 1034.6
20260904185723 95 94 1.0 1.0 0.00 0.00 0.00 56 1035.0
20260904185222 93 19 0.0 0.0 0.00 0.00 0.00 58 1034.7
20260904184721 91 21 2.0 2.0 0.00 0.00 0.00 61 1034.7
20260904184217 91 13 0.0 0.0 0.00 0.00 0.00 62 1034.6
20260904183712 93 5 0.0 1.0 0.00 0.00 0.00 61 1035.0
20260904183207 94 332 2.0 2.0 0.00 0.00 0.00 59 1035.1
20260904182703 91 69 1.0 2.0 0.00 0.00 0.00 59 1035.1
20260904182157 90 359 0.0 1.0 0.00 0.00 0.00 67 1035.3
20260904181653 92 10 0.0 0.0 0.00 0.00 0.00 65 1035.2
20260904181152 92 254 1.0 1.0 0.00 0.00 0.00 63 1035.2
20260904180648 90 5 0.0 0.0 0.00 0.00 0.00 66 1035.3
20260904180143 91 6 0.0 1.0 0.00 0.00 0.00 65 1035.4
20260904175642 91 17 0.0 1.0 0.00 0.00 0.00 64 1035.5
20260904175141 92 20 0.0 0.0 0.00 0.00 0.00 63 1035.6
20260904174636 92 359 0.0 0.0 0.00 0.00 0.00 62 1035.6
20260904174132 93 95 1.0 1.0 0.00 0.00 0.00 60 1035.9
20260904173627 92 25 0.0 0.0 0.00 0.00 0.00 60 1035.8
20260904173123 91 102 1.0 1.0 0.00 0.00 0.00 62 1036.0
20260904172619 91 1 0.0 0.0 0.00 0.00 0.00 63 1035.9
20260904172118 90 22 0.0 0.0 0.00 0.00 0.00 63 1036.0
20260904171613 90 6 0.0 0.0 0.00 0.00 0.00 66 1036.1
20260904171109 91 3 0.0 0.0 0.00 0.00 0.00 64 1036.2
20260904170604 91 79 1.0 2.0 0.00 0.00 0.00 61 1036.3
20260904170100 91 20 0.0 0.0 0.00 0.00 0.00 63 1036.1
20260904165559 92 17 0.0 0.0 0.00 0.00 0.00 61 1036.0
20260904165058 92 15 0.0 0.0 0.00 0.00 0.00 63 1036.1
20260904164553 91 165 1.0 2.0 0.00 0.00 0.00 64 1036.1
20260904164049 91 15 0.0 0.0 0.00 0.00 0.00 65 1036.3
20260904163549 91 24 0.0 0.0 0.00 0.00 0.00 65 1036.2
20260904163044 91 305 0.0 0.0 0.00 0.00 0.00 64 1036.4
20260904162538 91 358 0.0 0.0 0.00 0.00 0.00 66 1036.7
20260904162034 91 15 0.0 0.0 0.00 0.00 0.00 65 1036.7
20260904161529 91 15 0.0 0.0 0.00 0.00 0.00 64 1036.6
20260904161024 91 357 0.0 0.0 0.00 0.00 0.00 63 1036.7
20260904160519 91 2 0.0 0.0 0.00 0.00 0.00 63 1036.7
20260904160015 90 358 0.0 0.0 0.00 0.00 0.00 64 1036.9
20260904155509 90 8 0.0 0.0 0.00 0.00 0.00 65 1036.8
20260904155009 90 171 0.0 1.0 0.00 0.00 0.00 66 1036.7
20260904154502 89 9 0.0 0.0 0.00 0.00 0.00 66 1036.7
20260904153957 89 18 0.0 0.0 0.00 0.00 0.00 68 1036.6
20260904153452 89 25 0.0 0.0 0.00 0.00 0.00 68 1036.8
20260904152949 89 143 1.0 1.0 0.00 0.00 0.00 67 1036.6
20260904152444 89 51 0.0 0.0 0.00 0.00 0.00 66 1036.6
20260904151943 88 357 0.0 0.0 0.00 0.00 0.00 72 1036.5
20260904151439 87 357 0.0 0.0 0.00 0.00 0.00 72 1036.8
20260904150933 87 13 0.0 0.0 0.00 0.00 0.00 71 1036.5
20260904150428 87 13 0.0 0.0 0.00 0.00 0.00 73 1036.5
20260904145926 87 35 0.0 0.0 0.00 0.00 0.00 74 1036.7
20260904145423 87 309 0.0 0.0 0.00 0.00 0.00 73 1036.7
20260904144918 88 15 0.0 0.0 0.00 0.00 0.00 71 1036.3
20260904144414 88 357 0.0 0.0 0.00 0.00 0.00 69 1036.6
20260904143909 89 16 0.0 0.0 0.00 0.00 0.00 70 1036.4
20260904143406 88 8 0.0 0.0 0.00 0.00 0.00 70 1036.4
20260904142902 87 9 0.0 0.0 0.00 0.00 0.00 73 1036.3
20260904142357 86 354 0.0 0.0 0.00 0.00 0.00 79 1036.4
20260904141851 85 21 0.0 0.0 0.00 0.00 0.00 79 1036.3
20260904141347 84 22 0.0 0.0 0.00 0.00 0.00 80 1036.5
20260904140843 83 31 0.0 0.0 0.00 0.00 0.00 80 1036.6
20260904140337 82 336 0.0 0.0 0.00 0.00 0.00 83 1036.5
20260904135837 82 83 0.0 0.0 0.00 0.00 0.00 83 1036.5
20260904135332 82 59 0.0 0.0 0.00 0.00 0.00 83 1036.6
20260904134828 82 2 0.0 0.0 0.00 0.00 0.00 83 1036.6
20260904134328 82 319 0.0 0.0 0.00 0.00 0.00 83 1036.5
20260904133822 81 9 0.0 0.0 0.00 0.00 0.00 85 1036.4
20260904133318 81 350 0.0 0.0 0.00 0.00 0.00 86 1036.6
20260904132817 80 357 0.0 0.0 0.00 0.00 0.00 86 1036.3
20260904132313 80 6 0.0 0.0 0.00 0.00 0.00 88 1036.3
20260904131812 79 4 0.0 0.0 0.00 0.00 0.00 89 1036.3
20260904131308 79 354 0.0 0.0 0.00 0.00 0.00 91 1036.2
20260904130808 78 184 0.0 0.0 0.00 0.00 0.00 92 1036.5
20260904130308 78 34 0.0 0.0 0.00 0.00 0.00 93 1036.3
20260904125803 77 38 0.0 0.0 0.00 0.00 0.00 94 1036.4
20260904125258 77 282 0.0 0.0 0.00 0.00 0.00 94 1036.2
20260904124753 77 332 0.0 0.0 0.00 0.00 0.00 94 1036.2
20260904124250 77 36 0.0 0.0 0.00 0.00 0.00 95 1035.9
20260904123750 77 72 0.0 0.0 0.00 0.00 0.00 95 1036.0
20260904123245 77 359 0.0 0.0 0.00 0.00 0.00 95 1036.0
20260904122740 77 40 0.0 0.0 0.00 0.00 0.00 95 1035.8
20260904122234 77 44 0.0 0.0 0.00 0.00 0.00 95 1035.8
20260904121730 77 70 0.0 0.0 0.00 0.00 0.00 96 1035.9
20260904121225 76 37 0.0 0.0 0.00 0.00 0.00 96 1035.8
20260904120722 76 1 0.0 0.0 0.00 0.00 0.00 96 1035.9
20260904120217 76 1 0.0 0.0 0.00 0.00 0.00 96 1035.6
20260904115712 76 3 0.0 0.0 0.00 0.00 0.00 96 1035.8
20260904115212 76 82 0.0 0.0 0.00 0.00 0.00 96 1035.6
20260904114707 76 75 0.0 0.0 0.00 0.00 0.00 96 1035.4
20260904114201 76 4 0.0 0.0 0.00 0.00 0.00 96 1035.4
20260904113656 76 17 0.0 0.0 0.00 0.00 0.00 96 1035.5
20260904113155 76 33 0.0 0.0 0.00 0.00 0.00 96 1035.5
20260904112650 76 81 0.0 0.0 0.00 0.00 0.00 96 1035.3
20260904112146 76 110 0.0 0.0 0.00 0.00 0.00 96 1035.5
20260904111642 76 84 0.0 0.0 0.00 0.00 0.00 96 1035.4
20260904111137 76 280 0.0 0.0 0.00 0.00 0.00 96 1035.2
20260904110632 76 351 0.0 0.0 0.00 0.00 0.00 96 1035.3
20260904110127 76 352 0.0 0.0 0.00 0.00 0.00 96 1035.0
20260904105626 76 352 0.0 0.0 0.00 0.00 0.00 95 1035.2
20260904105121 76 352 0.0 0.0 0.00 0.00 0.00 95 1035.1
20260904104617 77 352 0.0 0.0 0.00 0.00 0.00 95 1035.2
20260904104112 77 352 0.0 0.0 0.00 0.00 0.00 95 1034.8
20260904103608 77 352 0.0 0.0 0.00 0.00 0.00 95 1035.1
20260904103104 77 352 0.0 0.0 0.00 0.00 0.00 95 1035.2
20260904102600 77 353 0.0 0.0 0.00 0.00 0.00 95 1035.1
20260904102055 77 352 0.0 0.0 0.00 0.00 0.00 95 1035.0
20260904101551 77 353 0.0 0.0 0.00 0.00 0.00 95 1034.8
20260904101047 77 353 0.0 0.0 0.00 0.00 0.00 94 1034.7
20260904100542 77 353 0.0 0.0 0.00 0.00 0.00 94 1035.0
20260904100031 77 353 0.0 0.0 0.00 0.00 0.00 94 1035.0
20260904095526 77 352 0.0 0.0 0.00 0.00 0.00 94 1034.6
20260904095022 77 350 0.0 0.0 0.00 0.00 0.00 94 1034.6
20260904094516 77 12 0.0 0.0 0.00 0.00 0.00 94 1034.7
20260904094011 77 1 0.0 0.0 0.00 0.00 0.00 94 1035.1
20260904093508 77 1 0.0 0.0 0.00 0.00 0.00 94 1034.7
20260904093003 77 1 0.0 0.0 0.00 0.00 0.00 94 1034.6
20260904092459 78 1 0.0 0.0 0.00 0.00 0.00 94 1034.7
20260904091955 78 0 0.0 0.0 0.00 0.00 0.00 93 1034.8
20260904091450 78 6 0.0 0.0 0.00 0.00 0.00 94 1034.7
20260904090944 78 32 0.0 0.0 0.00 0.00 0.00 94 1034.6
20260904090440 78 113 0.0 0.0 0.00 0.00 0.00 94 1034.6
20260904085935 78 66 0.0 0.0 0.00 0.00 0.00 93 1034.4
20260904085431 78 355 0.0 0.0 0.00 0.00 0.00 93 1034.7
20260904084925 78 355 0.0 0.0 0.00 0.00 0.00 93 1034.6
20260904084422 78 354 0.0 0.0 0.00 0.00 0.00 92 1034.7
20260904083917 78 354 0.0 0.0 0.00 0.00 0.00 92 1034.6
20260904083413 78 355 0.0 0.0 0.00 0.00 0.00 92 1034.8
20260904082909 78 355 0.0 0.0 0.00 0.00 0.00 93 1034.5
20260904082409 78 355 0.0 0.0 0.00 0.00 0.00 93 1034.6
20260904081903 78 355 0.0 0.0 0.00 0.00 0.00 93 1034.7
20260904081359 78 358 0.0 0.0 0.00 0.00 0.00 93 1034.8
20260904080855 78 343 0.0 0.0 0.00 0.00 0.00 93 1034.8
20260904080350 79 358 0.0 0.0 0.00 0.00 0.00 92 1034.7
20260904075846 78 356 0.0 0.0 0.00 0.00 0.00 91 1034.7
20260904075342 78 359 0.0 0.0 0.00 0.00 0.00 92 1034.7
20260904074840 79 1 0.0 0.0 0.00 0.00 0.00 92 1034.7
20260904074335 79 1 0.0 0.0 0.00 0.00 0.00 92 1034.7
20260904073831 78 25 0.0 0.0 0.00 0.00 0.00 92 1034.8
20260904073326 79 64 0.0 0.0 0.00 0.00 0.00 92 1034.7
20260904072822 79 5 0.0 0.0 0.00 0.00 0.00 92 1034.8
20260904072321 79 5 0.0 0.0 0.00 0.00 0.00 92 1035.2
20260904071817 79 2 0.0 0.0 0.00 0.00 0.00 92 1034.8
20260904071312 79 349 0.0 0.0 0.00 0.00 0.00 91 1034.7
20260904070807 79 349 0.0 0.0 0.00 0.00 0.00 91 1034.7
20260904070306 79 347 0.0 0.0 0.00 0.00 0.00 91 1034.6
20260904065801 79 59 0.0 0.0 0.00 0.00 0.00 91 1034.5
20260904065258 79 62 0.0 0.0 0.00 0.00 0.00 91 1034.8
20260904064757 80 78 0.0 0.0 0.00 0.00 0.00 90 1034.7
20260904064253 80 61 0.0 0.0 0.00 0.00 0.00 90 1034.8
20260904063749 79 357 0.0 0.0 0.00 0.00 0.00 90 1034.6
20260904063245 79 5 0.0 0.0 0.00 0.00 0.00 90 1034.6
20260904062740 80 5 0.0 0.0 0.00 0.00 0.00 90 1034.8
20260904062236 80 6 0.0 0.0 0.00 0.00 0.00 90 1035.0
20260904061731 80 6 0.0 0.0 0.00 0.00 0.00 90 1035.0
20260904061228 80 353 0.0 0.0 0.00 0.00 0.00 90 1034.6
20260904060724 80 315 0.0 0.0 0.00 0.00 0.00 90 1034.8
20260904060220 80 4 0.0 0.0 0.00 0.00 0.00 89 1035.0
20260904055715 80 4 0.0 0.0 0.00 0.00 0.00 89 1034.6
20260904055209 80 5 0.0 0.0 0.00 0.00 0.00 90 1034.7
20260904054705 80 33 0.0 0.0 0.00 0.00 0.00 90 1034.8
20260904054201 80 22 0.0 0.0 0.00 0.00 0.00 90 1034.8
20260904053655 80 328 0.0 0.0 0.00 0.00 0.00 90 1034.8
20260904053150 80 308 0.0 0.0 0.00 0.00 0.00 89 1035.0
20260904052647 80 273 1.0 1.0 0.00 0.00 0.00 89 1034.8
20260904052142 80 353 0.0 0.0 0.00 0.00 0.00 88 1034.8
20260904051638 80 353 0.0 0.0 0.00 0.00 0.00 88 1034.7
20260904051133 80 353 0.0 0.0 0.00 0.00 0.00 87 1034.8
20260904050629 80 353 0.0 0.0 0.00 0.00 0.00 87 1034.8
20260904050125 80 352 0.0 0.0 0.00 0.00 0.00 87 1035.1
20260904045619 80 354 0.0 0.0 0.00 0.00 0.00 87 1034.8
20260904045114 80 354 0.0 0.0 0.00 0.00 0.00 87 1035.2
20260904044609 80 354 0.0 0.0 0.00 0.00 0.00 87 1034.8
20260904044106 80 354 0.0 0.0 0.00 0.00 0.00 87 1034.7
20260904043602 80 354 0.0 0.0 0.00 0.00 0.00 87 1034.6
20260904043058 81 354 0.0 0.0 0.00 0.00 0.00 86 1035.0
20260904042553 81 354 0.0 0.0 0.00 0.00 0.00 86 1035.1
20260904042048 81 354 0.0 0.0 0.00 0.00 0.00 85 1035.0
20260904041544 82 354 0.0 0.0 0.00 0.00 0.00 84 1035.0
20260904041040 82 354 0.0 0.0 0.00 0.00 0.00 84 1034.8
20260904040540 81 2 0.0 0.0 0.00 0.00 0.00 84 1035.2
20260904040037 81 358 0.0 0.0 0.00 0.00 0.00 85 1035.0
20260904035537 81 357 0.0 0.0 0.00 0.00 0.00 85 1035.1
20260904035031 81 357 0.0 0.0 0.00 0.00 0.00 85 1035.1
20260904034526 81 357 0.0 0.0 0.00 0.00 0.00 85 1035.3
20260904034021 82 357 0.0 0.0 0.00 0.00 0.00 83 1035.1
20260904033518 82 357 0.0 0.0 0.00 0.00 0.00 83 1035.3
20260904033014 82 357 0.0 0.0 0.00 0.00 0.00 82 1035.2
20260904032509 82 357 0.0 0.0 0.00 0.00 0.00 82 1035.4
20260904032009 82 358 0.0 0.0 0.00 0.00 0.00 82 1035.1
20260904031504 82 336 0.0 0.0 0.00 0.00 0.00 82 1035.3
20260904031000 82 3 0.0 0.0 0.00 0.00 0.00 81 1035.0
20260904030455 82 3 0.0 0.0 0.00 0.00 0.00 81 1035.1
20260904025949 82 3 0.0 0.0 0.00 0.00 0.00 80 1035.2
20260904025446 82 3 0.0 0.0 0.00 0.00 0.00 80 1035.2
20260904024946 82 3 0.0 0.0 0.00 0.00 0.00 80 1035.2
20260904024441 82 3 0.0 0.0 0.00 0.00 0.00 80 1035.1
20260904023937 82 3 0.0 0.0 0.00 0.00 0.00 80 1035.4
20260904023433 83 3 0.0 0.0 0.00 0.00 0.00 80 1035.4
20260904022932 83 3 0.0 0.0 0.00 0.00 0.00 80 1035.3
20260904022429 83 3 0.0 0.0 0.00 0.00 0.00 80 1035.2
20260904021925 83 3 0.0 0.0 0.00 0.00 0.00 79 1035.1
20260904021421 83 3 0.0 0.0 0.00 0.00 0.00 79 1035.1
20260904020915 83 3 0.0 0.0 0.00 0.00 0.00 78 1035.1
20260904020411 83 3 0.0 0.0 0.00 0.00 0.00 78 1034.8
20260904015909 83 3 0.0 0.0 0.00 0.00 0.00 78 1034.8
20260904015405 84 3 0.0 0.0 0.00 0.00 0.00 78 1034.7
20260904014903 84 3 0.0 0.0 0.00 0.00 0.00 77 1034.7
20260904014359 84 3 0.0 0.0 0.00 0.00 0.00 77 1035.1
20260904013854 84 1 0.0 0.0 0.00 0.00 0.00 77 1035.0
20260904013350 84 356 0.0 0.0 0.00 0.00 0.00 77 1034.6
20260904012846 84 16 0.0 0.0 0.00 0.00 0.00 76 1034.8
20260904012340 84 16 0.0 0.0 0.00 0.00 0.00 76 1034.8
20260904011839 84 44 0.0 0.0 0.00 0.00 0.00 76 1034.7
20260904011335 85 2 0.0 0.0 0.00 0.00 0.00 75 1034.7
20260904010829 85 1 0.0 0.0 0.00 0.00 0.00 75 1034.2
20260904010327 85 36 0.0 0.0 0.00 0.00 0.00 74 1034.3
20260904005821 86 20 0.0 0.0 0.00 0.00 0.00 73 1034.3
20260904005317 86 333 0.0 0.0 0.00 0.00 0.00 73 1034.2
20260904004811 85 3 0.0 0.0 0.00 0.00 0.00 73 1034.1
20260904004308 85 4 0.0 0.0 0.00 0.00 0.00 73 1034.1
20260904003803 85 7 0.0 0.0 0.00 0.00 0.00 74 1034.2
20260904003259 86 7 0.0 0.0 0.00 0.00 0.00 73 1034.1
20260904002754 86 6 0.0 0.0 0.00 0.00 0.00 72 1034.1
20260904002250 87 2 0.0 0.0 0.00 0.00 0.00 71 1034.2
20260904001749 87 11 0.0 0.0 0.00 0.00 0.00 70 1033.9
20260904001244 87 31 0.0 0.0 0.00 0.00 0.00 70 1033.9
20260904000739 87 24 0.0 0.0 0.00 0.00 0.00 69 1033.9
20260904000234 87 16 0.0 0.0 0.00 0.00 0.00 71 1034.2
20260903235734 87 16 0.0 0.0 0.00 0.00 0.00 72 1034.0
20260903235230 87 1 1.0 1.0 0.00 0.00 0.00 71 1033.9
20260903234723 88 3 0.0 0.0 0.00 0.00 0.00 70 1033.8